Regional Weather Roundup
Issued by NWS

Home | Current Version | Previous Version | Text Only | Print | Product List | Glossary On
Versions: 1 2 3 4 5 6 7 8 9 10 11 12 13 14 15 16 17 18 19 20 21 22 23 24 25 26 27
000
ASUS43 KMPX 092210
RWRMN
WEATHER ROUNDUP FOR MINNESOTA
NATIONAL WEATHER SERVICE TWIN CITIES/CHANHASSEN MN
500 PM CDT SUN MAY 09 2021


NOTE: "FAIR" INDICATES FEW OR NO CLOUDS BELOW 12,000 FEET WITH NO
SIGNIFICANT WEATHER AND/OR OBSTRUCTIONS TO VISIBILITY. N/A MEANS
CURRENT SKY AND/OR WEATHER CONDITIONS ARE NOT AVAILABLE.

MNZ060>063-068>070-092300-
   Twin Cities Metro

CITY           SKY/WX    TMP DP  RH WIND       PRES   REMARKS
TWIN CITIES    MOSUNNY   61  25  25 VRB6G23   30.00R
ST PAUL        SUNNY     62  26  25 N14       30.01R
CRYSTAL        MOSUNNY   62  24  23 N9        29.99S
BLAINE         MOSUNNY   61  25  25 N12G17    30.01R
LAKEVILLE      SUNNY     61  21  21 NW3       29.99S
EDEN PRAIRIE   MOSUNNY   61  26  26 NW8       29.98S
SOUTH ST PAUL  SUNNY     60  21  22 NE6       29.99S
$$
MNZ001>005-007-008-013>017-022>024-027-028-092300-
   Northwest Minnesota

CITY           SKY/WX    TMP DP  RH WIND       PRES   REMARKS
BEMIDJI        MOSUNNY   52  26  36 N15       30.09R
HALLOCK        MOSUNNY   55  19  24 NE13G20   30.15R
ROSEAU           N/A     54 N/A N/A NE10G22   30.16R
WARROAD        SUNNY     48  32  53 NE15      30.18R
THIEF RVR FALL MOSUNNY   52  24  33 NE16G23   30.13R
CROOKSTON      SUNNY     55  21  26 NE12G21   30.12R
FOSSTON        MOSUNNY   52  21  30 NE10G25   30.10R
DETROIT LAKES  MOSUNNY   57  21  24 N12G17    30.05R
MOORHEAD       MOSUNNY   61   3  10 NE6G12    30.07S
PARK RAPIDS    MOSUNNY   55  20  25 N13G20    30.05S
MAHNOMEN       FAIR      57  25  29 NE13      30.07S
$$
MNZ006-009>011-018-025>026-092300-
   North Central Minnesota

CITY           SKY/WX    TMP DP  RH WIND       PRES   REMARKS
BAUDETTE       CLOUDY    49  23  36 NE15G22   30.15S
INTL FALLS     CLOUDY    47  22  37 NE13G22   30.15R
WASKISH        CLOUDY    48  21  34 N9G18     30.13R
BIG FORK       PTSUNNY   48  21  34 N7G16     30.15S
LONGVILLE      PTSUNNY   54  23  30 N6        30.06S
GRAND RAPIDS   CLOUDY    49  24  37 NE9       30.09R
CRANE LAKE     CLOUDY    45  18  33 NE7       30.16R
ORR            CLOUDY    46  16  29 N6        30.10R
COOK           CLOUDY    45  21  39 NE8G16    30.11R
WALKER         CLOUDY    53  26  36 NE6       30.06S
$$
MNZ012-019>021-037-092300-
   Northeast Minnesota

CITY           SKY/WX    TMP DP  RH WIND       PRES   REMARKS
DULUTH         CLOUDY    43  24  47 E12       30.09S
ELY            CLOUDY    43  21  42 NE9       30.11R
HIBBING        CLOUDY    47  24  40 NE13G20   30.09R
EVELETH        CLOUDY    46  26  46 NE10      30.10S
DULUTH HARBOR  CLOUDY    41  36  81 NE14      30.13R
TWO HARBORS    CLOUDY    41  25  52 E8        30.11S
SILVER BAY     CLOUDY    39  21  48 NE6       30.12R
GRAND MARAIS     N/A     40  31  70 SE3       30.14R
G MARAIS ARPRT CLOUDY    37  27  65 SE6       30.09R
$$
MNZ029>031-032-039>041-046>048-054>057-064-092300-
   West Central Minnesota

CITY           SKY/WX    TMP DP  RH WIND       PRES   REMARKS
FERGUS FALLS   SUNNY     57  21  24 N5        30.01S
WHEATON        SUNNY     61  12  15 W7        30.05S
MORRIS         SUNNY     63   3   9 NW9       30.04S
ALEXANDRIA     SUNNY     60  18  19 MISG      30.03F
ELBOW LAKE     FAIR      58  23  25 CALM      30.04S
WADENA         MOSUNNY   59  27  29 N8        30.03S
GLENWOOD       SUNNY     59  23  25 NE3       30.03S
APPLETON       MOSUNNY   63  12  14 N10G18    30.02S
BENSON         SUNNY     61  21  21 E7        30.03F
ORTONVILLE     MOSUNNY   61  19  20 N7        30.03S
MADISON        MOSUNNY   64  18  16 N7G14     30.04R
WILLMAR        FAIR      63  19  19 N12       30.05S
$$
MNZ033>034-036-042>043-049>051-058-059-092300-
   Central Minnesota

CITY           SKY/WX    TMP DP  RH WIND       PRES   REMARKS
ST CLOUD       SUNNY     58  18  21 NE10G17   30.02F
SAUK CENTRE    FAIR      58  22  24 NW12      30.03S
PAYNESVILLE    MOSUNNY   61  25  25 N9        30.03F
AITKIN         MOSUNNY   54  21  28 NE10      30.04S
PINE RIVER     MOSUNNY   55  27  33 N10       30.09R
BRAINERD       MOSUNNY   58  21  24 N13G21    30.04S
STAPLES        MOSUNNY   61  21  21 N8        30.04R
LONG PRAIRIE   FAIR      57  21  24 NE7       30.03S
LITTLE FALLS   SUNNY     57  12  17 NW8       30.03S
CAMP RIPLEY    FAIR      58  21  24 N13       30.04S
LITCHFIELD     SUNNY     61  23  23 N7G17     30.03R
BUFFALO        SUNNY     60  18  20 MISG      30.02R
MAPLE LAKE     SUNNY     61  27  27 NW8       30.03S
HUTCHINSON     SUNNY     61  26  25 NW5       30.02S
$$
MNZ037-044-045-052-053-092300-
   East Central Minnesota

CITY           SKY/WX    TMP DP  RH WIND       PRES   REMARKS
PRINCETON      PTSUNNY   57  25  28 NE8       30.03R
MORA           MOSUNNY   54  27  35 E6        30.05S
CAMBRIDGE      SUNNY     59  34  38 N5        30.03S
RUSH CITY      SUNNY     56  25  30 N9        30.03S
MOOSE LAKE     PTSUNNY   52  27  37 NE7       30.05R
HINCKLEY       CLOUDY    59  28  31 NE9       30.04S
CLOQUET        CLOUDY    45  25  45 E10       30.08R
MCGREGOR       CLOUDY    52  25  35 N9        30.06
$$
MNZ071>073-080-081-089-090-097-098-092300-
   Southwest Minnesota

CITY           SKY/WX    TMP DP  RH WIND       PRES   REMARKS
MONTEVIDEO     MOSUNNY   63   9  12 NW13G20   30.02S
GRANITE FALLS  MOSUNNY   63  21  19 N8G17     30.03S
CANBY          PTSUNNY   61  24  24 NW10G16   30.04S
MARSHALL       PTSUNNY   61  23  23 NW13G23   30.02S
REDWOOD FALLS  MOSUNNY   62  20  19 NW10      30.00S
OLIVIA         MOSUNNY   61  19  20 N8G17     30.01S
PIPESTONE        N/A     57  28  33 NW10G17   30.03F
WINDOM         PTSUNNY   61  23  23 NW8       30.00F
WORTHINGTON    CLOUDY    58  28  32 NW10      30.03F
JACKSON        CLOUDY    59  19  21 W6        30.01F
TRACY          CLOUDY    62  14  15 N12G17    30.01F
SLAYTON        CLOUDY    58  22  24 NW10      30.03S
$$
MNZ065>067-074>077-082>085-091>093-092300-
   South Central Minnesota

CITY           SKY/WX    TMP DP  RH WIND       PRES   REMARKS
MANKATO        MOSUNNY   62  23  22 N8G20     30.00S
NEW ULM        MOSUNNY   61  21  21 NW15      30.00R
ST JAMES       PTSUNNY   63  19  19 N5        29.99S
FAIRMONT       PTSUNNY   62  21  20 NW15      30.00F
GLENCOE        MOSUNNY   61  21  21 W6        30.00S
FARIBAULT      SUNNY     63  21  20 NW12G17   29.99S
OWATONNA       MOSUNNY   63  28  27 NW13G21   29.99S
WASECA         MOSUNNY   61  23  23 W15       30.01S
ALBERT LEA     MOSUNNY   63  25  23 NE7       29.98S
$$
MNZ078>079-086>088-094>096-092300-
   Southeast Minnesota

CITY           SKY/WX    TMP DP  RH WIND       PRES   REMARKS
ROCHESTER      MOSUNNY   62  26  25 NW15G24   29.98S
RED WING       MOSUNNY   63  18  17 NW7       29.97R
STANTON        MOSUNNY   62  26  26 N6        29.98R
DODGE CENTER   PTSUNNY   61  21  21 NW12      29.98S
WINONA         MOSUNNY   64  32  29 NW6       29.96R
AUSTIN         PTSUNNY   63  30  29 NW7G16    29.98S
PRESTON        MOSUNNY   59  26  28 NE6       29.98R
$$
ABBREVIATIONS USED IN REMARKS
   TC - TEMPERATURES IN CELSIUS
  WCI - WIND CHILL INDEX
   HX - HEAT INDEX
  VSB - VISIBILITY
$$



USA.gov is the U.S. government's official web portal to all federal, state and local government web resources and services.